Regional Weather Roundup
Issued by NWS Upton, NY

Current Version | Previous Version | Text Only | Print | Product List | Glossary On
Versions: 1 2 3 4 5 6 7 8 9 10 11 12 13 14 15 16 17 18 19 20 21 22 23 24 25 26 27 28 29 30 31 32 33 34 35 36 37 38 39 40 41 42 43 44 45 46 47 48 49 50
000
ASUS41 KOKX 250005
RWROKX

REGIONAL WEATHER ROUNDUP
NATIONAL WEATHER SERVICE NEW YORK NY
800 PM EDT THU JUL 24 2014

NOTE: "FAIR" INDICATES FEW OR NO CLOUDS BELOW 12,000 FEET WITH NO
SIGNIFICANT WEATHER AND/OR OBSTRUCTIONS TO VISIBILITY.

NYZ071-072-176-178-NJZ106-104-250100-
NEW YORK CITY METRO AREA


CITY           SKY/WX    TMP DP  RH WIND       PRES   REMARKS
CENTRAL PARK   CLEAR     76  56  49 VRB6      29.89R
LAGUARDIA APRT MOCLDY    77  57  50 N12       29.85R
KENNEDY INTL   MOCLDY    78  53  41 N9        29.86R
NEWARK/LIBERTY MOCLDY    79  55  43 NW13      29.86R
BRNX BOT. GARD   N/A     75  55  50 N5        29.87F
TETERBORO      CLOUDY    79  56  45 N7        29.85R
$$

NYZ177-179-078>081-250100-
LONG ISLAND NEW YORK

CITY           SKY/WX    TMP DP  RH WIND       PRES   REMARKS
FARMINGDALE    CLEAR     76  56  49 N7        29.86R
ISLIP          PTCLDY    77  57  50 N8        29.84R
SHIRLEY        CLEAR     74  59  59 NW7       29.85R
WESTHAMPTON    CLEAR     75  60  59 NW3       29.85R
MONTAUK POINT    N/A     70  65  84 CALM      29.86R
$$

NYZ052-065-067-250100-
HUDSON VALLEY

CITY           SKY/WX    TMP DP  RH WIND       PRES   REMARKS
WHITE PLAINS   PTCLDY    71  57  61 N7        29.87R
NEWBURGH       PTCLDY    73  57  56 N12       29.90R
MONTGOMERY     MOCLDY    74  59  59 NW6       29.89R
POUGHKEEPSIE   PTCLDY    74  57  55 N3        29.87R
ALBANY         PTCLDY    71  53  52 W9        29.89R
$$

NJZ001-105-106-008-010-013-015-019>022-104-250100-
NEW JERSEY

CITY           SKY/WX    TMP DP  RH WIND       PRES   REMARKS
NEWARK/LIBERTY MOCLDY    79  55  43 NW13      29.86R
TETERBORO      CLOUDY    79  56  45 N7        29.85R
CALDWELL       MOCLDY    75  57  53 NW3       29.88R
MORRISTOWN     PTCLDY    75  54  46 NW5G13    29.88R
SOMERVILLE     MOCLDY    74  55  51 NW3       29.86R
LINDEN         MOCLDY    79  54  42 N8        29.88R
SUSSEX         MOCLDY    74  54  49 VRB5      29.90R
ANDOVER          N/A     71  53  52 N5        29.91R
TRENTON        PTCLDY    74  55  51 N7        29.87R
MILLVILLE      MOCLDY    72  64  76 W5        29.88R
ATLANTIC CITY  PTCLDY    73  67  81 SE6       29.87R
WRIGHTSTOWN    PTCLDY    74  58  56 NW6       29.86R
TOMS RIVER     PTCLDY    75  63  64 CALM      29.88R
BELMAR         CLEAR     75  63  64 CALM      29.87R
$$

PAZ047>061-062-071-250100-
EASTERN PENNSYLVANIA

CITY           SKY/WX    TMP DP  RH WIND       PRES   REMARKS
PHILADELPHIA   CLOUDY    79  53  40 NW15      29.89R
ALLENTOWN      MOCLDY    73  53  49 N10       29.91R
SCRANTON       PTCLDY    71  50  47 NW9       29.95R
$$

CTZ002-004>006-009-010-012-RIZ004-006-007-MAZ004-011-015-250100-
SOUTHERN NEW ENGLAND
 IN CT

CITY           SKY/WX    TMP DP  RH WIND       PRES   REMARKS
BRADLEY INTL   PTCLDY    74  56  53 NW7       29.85R
HARTFORD       CLEAR     76  54  46 N9        29.85R
DANBURY        CLEAR     72  55  55 N6        29.89R
WTRBRY/OXFORD  PTCLDY    70  55  60 N6        29.90R
BRIDGEPORT     MOCLDY    77  56  48 NW8       29.85R
MERIDEN        PTCLDY    75  55  49 NW7       29.86R
NEW HAVEN      PTCLDY    78  55  44 N9        29.85R
CHESTER        FAIR      72  63  73 NW3       29.87R
GROTON         PTCLDY    69  65  86 SE6       29.84R
WILLIMANTIC    CLEAR     75  58  55 NW5       29.84R

 IN RI

CITY           SKY/WX    TMP DP  RH WIND       PRES   REMARKS
PROVIDENCE     MOCLDY    72  59  63 E7        29.85R
BLOCK ISLAND   MOCLDY    68  63  83 E7        29.85R
WESTERLY       MOCLDY    71  64  78 E5        29.85R

 IN MA

CITY           SKY/WX    TMP DP  RH WIND       PRES   REMARKS
BOSTON         PTCLDY    65  62  90 E3        29.85R
WORCESTER      PTCLDY    71  55  56 NW6       29.88R
WESTFIELD      CLEAR     72  56  57 N7        29.86R
PROVINCETOWN   CLOUDY    64  64 100 CALM      29.85R
NANTUCKET      CLOUDY    65  63  93 N10       29.83R
$$

ANZ330-335-338-340-345-350-353-355-250100-
COASTAL MARINE OBSERVATIONS


STATION/POSITION TIME  SKY/WX   TEMP    WIND        PRES    VSBY  WAVE
                                AIR SEA DIR/SP/G                  HT/PER
                 (UTC)          (F)     (DEG/KT/KT) (MB)    (MI)  (FT/S)
NY HARB ENTRANCE NOT AVBL
4S FIRE IS       NOT AVBL
23SW MTP         0000            70 72              1009.9          3/ 8
HUDSON CANYON    0000            74 74  320/  8/  8 1010.6          3/ 8
EXECUTION ROCKS  0000            76 73  350/ 10/ 12   N/A
WESTERN LI SOUND 0000            76     350/  8/ 12   N/A           0
CENTRAL LI SOUND 2300            75 74  290/  6/  6   N/A           0
EASTERN LI SOUND 2300            75 67  120/  4/  6   N/A
ROBBINS REEF     0000            77      20/ 12/ 13   N/A
$$


>>>>>>>>>>>>>>>>>>>>>>>>>>>> KEY <<<<<<<<<<<<<<<<<<<<<<<<<<<
>                                                          <
>     SKY/WX - SKY CONDITION/PRESENT WEATHER               <
>     TMP    - TEMPERATURE IN FAHRENHEIT                   <
>     DP     - DEWPOINT IN FAHRENHEIT                      <
>     RH     - RELATIVE HUMIDITY IN PERCENT                <
>     WIND   - DIRECTION AND SPEED IN MPH                  <
>     PRES   - MEAN SEA LEVEL PRESSURE IN INCHES OF HG     <
>     WCI    - WIND CHILL INDEX                            <
>     VSB    - VISIBILITY IN MILES                         <
>     HX     - HEAT INDEX                                  <
>     TC     - TEMPERATURE IN CELSIUS                      <
>     VRB    - VARIABLE WIND DIRECTION                     <
>                                                          <
>>>>>>>>>>>>>>>>>>>>>>>>>>>> KEY <<<<<<<<<<<<<<<<<<<<<<<<<<<




USA.gov is the U.S. government's official web portal to all federal, state and local government web resources and services.